FW1194 Weather Reports


time (UTC)temp
C
wind
direction
speed
KPH
gust
KPH
rain 1hr
cm
rain 24hr
cm
rain mn
cm
humidity
%
barometer
mb
20260510205217 17 315 9.7 16.1 0.00 0.00 0.00 27 1017.5
20260510204217 17 0 6.4 14.5 0.00 0.00 0.00 28 1017.6
20260510203217 17 0 8.0 17.7 0.00 0.00 0.00 29 1017.8
20260510202217 17 270 4.8 11.3 0.00 0.00 0.00 29 1017.9
20260510201217 17 315 8.0 14.5 0.00 0.00 0.00 29 1017.9
20260510200217 17 293 9.7 16.1 0.00 0.00 0.00 27 1018.0
20260510195237 17 338 6.4 12.9 0.00 0.00 0.00 29 1018.0
20260510194217 17 315 11.3 19.3 0.00 0.00 0.00 29 1017.9
20260510193217 18 248 16.1 19.3 0.00 0.00 0.00 29 1017.9
20260510192217 17 270 16.1 20.9 0.00 0.00 0.00 29 1018.0
20260510191217 17 270 12.9 19.3 0.00 0.00 0.00 29 1018.1
20260510190217 17 270 16.1 20.9 0.00 0.00 0.00 27 1018.1
20260510185217 17 270 16.1 25.7 0.00 0.00 0.00 28 1018.0
20260510184237 17 270 6.4 12.9 0.00 0.00 0.00 30 1017.9
20260510183217 17 225 9.7 12.9 0.00 0.00 0.00 28 1017.9
20260510182257 17 0 11.3 19.3 0.00 0.00 0.00 27 1017.9
20260510181237 17 315 6.4 9.7 0.00 0.00 0.00 28 1017.8
20260510180216 17 315 8.0 14.5 0.00 0.00 0.00 28 1017.9
20260510175217 17 315 11.3 32.2 0.00 0.00 0.00 29 1017.9
20260510174217 17 293 6.4 9.7 0.00 0.00 0.00 27 1018.0
20260510173216 17 270 12.9 22.5 0.00 0.00 0.00 31 1018.2
20260510172217 16 270 11.3 14.5 0.00 0.00 0.00 31 1018.1
20260510171217 16 315 3.2 8.0 0.00 0.00 0.00 31 1018.2
20260510170217 16 270 9.7 16.1 0.00 0.00 0.00 30 1018.3
20260510165217 15 203 3.2 6.4 0.00 0.00 0.00 30 1018.2
20260510164217 15 270 12.9 17.7 0.00 0.00 0.00 31 1018.1
20260510163238 15 23 8.0 12.9 0.00 0.00 0.00 33 1018.0
20260510162216 16 0 4.8 12.9 0.00 0.00 0.00 33 1018.0
20260510161217 15 293 8.0 12.9 0.00 0.00 0.00 33 1018.1
20260510160217 15 270 12.9 19.3 0.00 0.00 0.00 32 1017.9
20260510155216 16 248 9.7 16.1 0.00 0.00 0.00 34 1017.9
20260510154217 16 0 4.8 8.0 0.00 0.00 0.00 34 1017.8
20260510153216 16 0 3.2 6.4 0.00 0.00 0.00 34 1017.7
20260510152217 15 248 4.8 6.4 0.00 0.00 0.00 35 1017.7
20260510151216 15 225 4.8 8.0 0.00 0.00 0.00 34 1017.6
20260510150217 15 203 8.0 9.7 0.00 0.00 0.00 33 1017.7
20260510145237 15 90 4.8 6.4 0.00 0.00 0.00 34 1017.7
20260510144217 14 90 4.8 8.0 0.00 0.00 0.00 34 1017.7
20260510143236 14 45 4.8 6.4 0.00 0.00 0.00 32 1017.7
20260510142217 13 68 1.6 4.8 0.00 0.00 0.00 33 1017.8
20260510141216 13 90 6.4 11.3 0.00 0.00 0.00 35 1017.7
20260510140216 13 68 4.8 9.7 0.00 0.00 0.00 35 1017.6
20260510135216 12 113 4.8 9.7 0.00 0.00 0.00 37 1017.6
20260510134216 12 68 6.4 14.5 0.00 0.00 0.00 39 1017.4
20260510133216 12 90 4.8 8.0 0.00 0.00 0.00 39 1017.2
20260510132216 12 90 12.9 16.1 0.00 0.00 0.00 37 1017.2
20260510131218 11 90 6.4 11.3 0.00 0.00 0.00 39 1017.1
20260510130217 11 68 9.7 11.3 0.00 0.00 0.00 41 1017.2
20260510125216 11 90 4.8 4.8 0.00 0.00 0.00 48 1017.1
20260510124216 10 23 3.2 4.8 0.00 0.00 0.00 58 1016.8
20260510123216 9 68 3.2 4.8 0.00 0.00 0.00 63 1016.6
20260510122216 8 90 3.2 6.4 0.00 0.00 0.00 67 1016.5
20260510121216 7 0 3.2 4.8 0.00 0.00 0.00 69 1016.2
20260510120216 6 0.0 3.2 0.00 0.00 0.00 74 1016.1
20260510115216 6 23 1.6 3.2 0.00 0.00 0.00 78 1016.0
20260510114216 5 68 3.2 4.8 0.00 0.00 0.00 80 1015.8
20260510113216 4 90 1.6 1.6 0.00 0.00 0.00 80 1015.6
20260510112216 3 45 1.6 3.2 0.00 0.00 0.00 80 1015.7
20260510111216 3 0.0 0.0 0.00 0.00 0.00 79 1015.6
20260510110216 3 0.0 1.6 0.00 0.00 0.00 79 1015.3
20260510105216 3 0.0 1.6 0.00 0.00 0.00 78 1015.2
20260510104216 3 0.0 1.6 0.00 0.00 0.00 77 1014.9
20260510103216 3 0.0 0.0 0.00 0.00 0.00 76 1014.9
20260510102216 4 0.0 0.0 0.00 0.00 0.00 75 1014.9
20260510101216 4 0.0 0.0 0.00 0.00 0.00 74 1014.7
20260510100216 4 0.0 0.0 0.00 0.00 0.00 73 1014.6
20260510095216 4 0.0 0.0 0.00 0.00 0.00 72 1014.5
20260510094216 5 0.0 0.0 0.00 0.00 0.00 71 1014.4
20260510093216 5 90 3.2 3.2 0.00 0.00 0.00 70 1014.4
20260510092236 5 0.0 0.0 0.00 0.00 0.00 69 1014.5
20260510091236 5 0.0 1.6 0.00 0.00 0.00 68 1014.5
20260510090216 6 0.0 0.0 0.00 0.00 0.00 66 1014.4
20260510085216 6 0.0 0.0 0.00 0.00 0.00 65 1014.3
20260510084216 6 0.0 0.0 0.00 0.00 0.00 65 1014.2
20260510083236 7 0.0 0.0 0.00 0.00 0.00 65 1014.1
20260510082216 7 0.0 1.6 0.00 0.00 0.00 62 1014.0
20260510081215 7 45 1.6 3.2 0.00 0.00 0.00 62 1013.7
20260510080216 7 45 1.6 3.2 0.00 0.00 0.00 61 1013.6
20260510075236 7 45 3.2 6.4 0.00 0.00 0.00 61 1013.3
20260510074216 8 68 6.4 9.7 0.00 0.00 0.00 60 1013.3
20260510073215 8 68 4.8 8.0 0.00 0.00 0.00 59 1013.3
20260510072216 8 45 4.8 8.0 0.00 0.00 0.00 59 1013.0
20260510071337 8 45 11.3 17.7 0.00 0.00 0.00 60 1012.9
20260510070218 8 45 11.3 16.1 0.00 0.00 0.00 63 1012.8
20260510065218 8 45 6.4 9.7 0.00 0.00 0.00 66 1012.6
20260510064218 8 23 6.4 9.7 0.00 0.00 0.00 67 1012.5
20260510063218 7 45 9.7 17.7 0.00 0.00 0.00 70 1012.4
20260510062238 7 68 4.8 6.4 0.00 0.00 0.00 73 1012.1
20260510061218 7 0 4.8 11.3 0.00 0.00 0.00 73 1012.0
20260510060217 7 225 3.2 4.8 0.00 0.00 0.00 72 1011.7
20260510055217 7 0.0 0.0 0.00 0.00 0.00 72 1011.6
20260510054238 7 0.0 0.0 0.00 0.00 0.00 71 1011.5
20260510053218 7 293 1.6 3.2 0.00 0.00 0.00 71 1011.4
20260510052217 7 0 3.2 4.8 0.00 0.00 0.00 70 1011.1
20260510051221 8 0.0 1.6 0.00 0.00 0.00 70 1011.0
20260510050215 8 0.0 1.6 0.00 0.00 0.00 69 1011.0
20260510045216 8 0.0 0.0 0.00 0.00 0.00 69 1010.8
20260510044216 8 0.0 1.6 0.00 0.00 0.00 68 1010.6
20260510043236 9 0.0 0.0 0.00 0.00 0.00 66 1010.4
20260510042216 9 0.0 1.6 0.00 0.00 0.00 62 1010.3
20260510041216 10 0.0 0.0 0.00 0.00 0.00 61 1010.1
20260510040216 10 0.0 0.0 0.00 0.00 0.00 60 1009.9
20260510035236 10 113 1.6 1.6 0.00 0.00 0.00 59 1009.9
20260510034216 10 0.0 1.6 0.00 0.00 0.00 58 1009.7
20260510033216 11 158 1.6 3.2 0.00 0.00 0.00 56 1009.7
20260510032216 11 0.0 1.6 0.00 0.00 0.00 55 1009.4
20260510031216 11 68 1.6 3.2 0.00 0.00 0.00 54 1009.3
20260510030257 11 68 1.6 1.6 0.00 0.00 0.00 53 1009.3
20260510025216 12 0.0 1.6 0.00 0.00 0.00 52 1009.1
20260510024216 12 90 3.2 6.4 0.00 0.00 0.00 51 1008.8
20260510023216 12 68 3.2 3.2 0.00 0.00 0.00 50 1008.6
20260510022236 12 90 3.2 4.8 0.00 0.00 0.00 49 1008.4
20260510021236 13 90 4.8 6.4 0.00 0.00 0.00 48 1008.2
20260510020216 13 68 3.2 4.8 0.00 0.00 0.00 47 1008.1
20260510015216 14 90 6.4 9.7 0.00 0.00 0.00 46 1007.8
20260510014216 15 68 9.7 16.1 0.00 0.00 0.00 44 1007.5
20260510013216 16 90 8.0 11.3 0.00 0.00 0.00 42 1007.2
20260510012216 17 68 4.8 11.3 0.00 0.00 0.00 40 1007.0
20260510011216 18 315 6.4 9.7 0.00 0.00 0.00 37 1006.7
20260510010216 18 0 4.8 8.0 0.00 0.00 0.00 34 1006.4
20260510005216 18 293 6.4 14.5 0.00 0.00 0.00 34 1006.1
20260510004216 18 293 6.4 8.0 0.00 0.00 0.00 33 1005.9
20260510003216 19 315 16.1 24.1 0.00 0.00 0.00 33 1005.8
20260510002216 20 315 9.7 19.3 0.00 0.00 0.00 32 1005.5
20260510001236 20 293 11.3 20.9 0.00 0.00 0.00 32 1005.3
20260510000216 20 270 14.5 19.3 0.00 0.00 0.00 33 1005.2
20260509235216 21 293 12.9 20.9 0.00 0.00 0.00 32 1004.9
20260509234216 21 270 9.7 16.1 0.00 0.00 0.00 32 1004.8
20260509233218 21 293 8.0 16.1 0.00 0.00 0.00 32 1004.7
20260509232217 21 293 14.5 20.9 0.00 0.00 0.00 31 1004.6
20260509231216 21 270 16.1 20.9 0.00 0.00 0.00 32 1004.4
20260509230218 21 293 8.0 12.9 0.00 0.00 0.00 32 1004.3
20260509225218 21 270 17.7 30.6 0.00 0.00 0.00 31 1004.1
20260509224218 22 270 14.5 19.3 0.00 0.00 0.00 30 1004.0
20260509223238 22 270 20.9 30.6 0.00 0.00 0.00 30 1003.9
20260509222217 22 315 16.1 22.5 0.00 0.00 0.00 31 1003.9
20260509221217 22 270 25.7 35.4 0.00 0.00 0.00 30 1003.7
20260509220318 22 270 16.1 22.5 0.00 0.00 0.00 29 1003.6
20260509215217 22 270 20.9 24.1 0.00 0.00 0.00 30 1003.4
20260509214237 22 270 16.1 22.5 0.00 0.00 0.00 29 1003.3
20260509213217 23 270 29.0 38.6 0.00 0.00 0.00 27 1003.3
20260509212217 23 293 20.9 32.2 0.00 0.00 0.00 28 1003.2
20260509211217 23 293 19.3 29.0 0.00 0.00 0.00 29 1003.0
20260509210217 23 248 27.4 48.3 0.00 0.00 0.00 29 1002.9